EW0195 Weather Reports


Display with metric or nautical units.
time (UTC)temp
F
wind
direction
speed
MPH
gust
MPH
rain 1hr
in
rain 24hr
in
rain mn
in
humidity
%
barometer
mb
20260504045956 49 316 2.0 5.0 0.00 0.00 0.00 54 1014.7
20260504042953 49 300 2.0 5.0 0.00 0.00 0.00 54 1014.8
20260504041453 49 304 2.0 5.0 0.00 0.00 0.00 53 1014.5
20260504035956 49 347 3.0 5.0 0.00 0.00 0.00 54 1014.5
20260504032953 50 302 2.0 5.0 0.00 0.00 0.00 53 1014.4
20260504031452 50 302 2.0 4.0 0.00 0.00 0.00 52 1014.3
20260504024452 50 304 1.0 3.0 0.00 0.00 0.00 52 1014.2
20260504022952 51 310 1.0 4.0 0.00 0.00 0.00 51 1014.2
20260504021452 50 300 1.0 2.0 0.00 0.00 0.00 51 1014.2
20260504014452 51 293 1.0 3.0 0.00 0.00 0.00 51 1014.2
20260504012953 51 282 0.0 1.0 0.00 0.00 0.00 51 1014.0
20260504011453 52 290 1.0 3.0 0.00 0.00 0.00 49 1013.9
20260504004452 53 295 0.0 2.0 0.00 0.00 0.00 48 1013.6
20260504002953 53 293 1.0 2.0 0.00 0.00 0.00 46 1013.5
20260503235956 55 302 1.0 2.0 0.00 0.00 0.00 44 1013.1
20260503232953 57 339 2.0 6.0 0.00 0.00 0.00 40 1012.9
20260503231452 57 338 1.0 3.0 0.00 0.00 0.00 42 1012.9
20260503221452 58 356 2.0 9.0 0.00 0.00 0.00 39 1012.8
20260503214453 59 59 3.0 8.0 0.00 0.00 0.00 39 1012.8
20260503211453 59 348 3.0 14.0 0.00 0.00 0.00 38 1012.7
20260503205956 59 277 4.0 14.0 0.00 0.00 0.00 35 1012.8
20260503204452 58 335 4.0 18.0 0.00 0.00 0.00 37 1012.8
20260503202953 59 338 3.0 10.0 0.00 0.00 0.00 38 1012.8
20260503201452 58 311 4.0 13.0 0.00 0.00 0.00 37 1013.0
20260503195956 57 46 4.0 14.0 0.00 0.00 0.00 42 1013.2
20260503194453 57 350 5.0 14.0 0.00 0.00 0.00 40 1013.4
20260503192952 57 17 5.0 12.0 0.00 0.00 0.00 40 1013.4
20260503191452 56 40 5.0 15.0 0.00 0.00 0.00 41 1013.6
20260503185956 56 34 5.0 12.0 0.00 0.00 0.00 41 1013.7
20260503184452 56 359 4.0 11.0 0.00 0.00 0.00 42 1013.9
20260503182952 55 314 5.0 15.0 0.00 0.00 0.00 44 1014.0
20260503175958 54 49 5.0 19.0 0.00 0.00 0.00 41 1014.1
20260503174454 54 62 4.0 15.0 0.00 0.00 0.00 47 1014.2
20260503172953 53 7 5.0 17.0 0.00 0.00 0.00 43 1014.3
20260503081450 40 42 0.0 3.0 0.00 0.00 0.00 79 1012.0
20260503071454 41 21 0.0 1.0 0.00 0.00 0.00 77 1011.5